COSMOS 591

Satellite information

Favourite Embed

Satellite Type and Status

PAYLOADIN ORBIT

Key statistics

Satellite COSMOS 591 at a glance.

Uptime

18851

Days in orbit

Revolutions

≈ 12.6

Per day

Orbit

LEO

Low Earth Orbit

Inclination

74.0

Latest

Satellite identification and parameters

Extended collection of information and parameters for COSMOS 591.

Object identification

Identified? True

Debris? False

Object name: COSMOS 591

International designator: 1973-069D

Object number (NORAD): 6848

Object ID (CCSDS): 6848

Country: COMMONWEALTH OF INDEPENDENT STATES (CIS)

Current information (Y/N): Y

RCS size: MEDIUM

Orbital parameters

Period: 114.128 minutes

Inclination: 74.0002 deg

SMA: 7793.892 km

Apoapsis: 1485.242 km

Periapsis: 1346.272 km

RAAN: 265.0894 deg

Eccentricy: 0.0089153

Argument of periapsis: 15.1168 deg

Mean anomaly: 91.4116 deg

Mean motion: 12.61743846 rev/day

Mean motion (dot): -0.00000031 rev/day2

B* drag term: -0.000081604 1/REarth

Two-line elements (TLE)

Creation date: May 12, 2025, 2:31 a.m.

Reference frame: TEME

Reference center: EARTH

Epoch: May 11, 2025, 6:47 p.m. UTC

TLE line 0: 0 COSMOS 591

TLE line 1: 1 06848U 73069D 25131.78327306 -.00000031 00000-0 -81604-4 0 9998

TLE line 2: 2 06848 74.0002 265.0894 0089153 15.1168 91.4116 12.61743846376878

Live tracking on map

Real-time ground track for satellite COSMOS 591.

In-orbit conjunctions

There are no conjunctions computed for COSMOS 591, at the moment. Check back to stay up to date, as we update our databases every day.

Go to all conjunctions

Associated space launch

Military communications satellites

COSMOS 591 was lifted into orbit during the mission ‘Kosmos-3M | Strela-1M 49-56’, on board a Kosmos-3M space rocket.

The launch took place on Oct. 2, 1973, 9:46 p.m. from 132/2.

For more information about the launch, click the button.

Launch to space Kosmos-3M | Strela-1M 49-56
Kosmos-3M | Strela-1M 49-56

Agency: N/A

Status: Launch Successful

Launch date: Oct. 2, 1973, 9:46 p.m. UTC

Rocket: Kosmos-3M

Launch pad: 132/2

Location: Plesetsk Cosmodrome, Russian Federation

...

Latest news about this satellite

There are no fresh news available about this satellite. Check back as we update our databases every day.


Newsletter sign-up

Weekly statistics, charts and insights to help you stay on top of the space industry.